HISPASAT 30W-6 (43228 NORAD) Tracking and Keplerian Element Data

This shows tracking and keplerian element data for the satellite.

Feedback or suggestion? Click here.




ElementValue
Catalog43228
NameHISPASAT 30W-6
Epoch Orbit2427
Epoch Day286.68559627
Epoch Year2024
RAAN61.1075
Inclination0.019
Eccentricity0.0002604
Argument of Perigee139.7191
Mean Anonmoly37.7514
Mean Motion1.00267079
Decay Rate-2.17E-06
L11 43228U 18023A 24286.68559627 -.00000217 00000+0 00000+0 0 9992
L22 43228 0.0190 61.1075 0002604 139.7191 37.7514 1.00267079 24278



Live tracking and technical data element details for HISPASAT 30W-6 (NORAD 43228). HISPASAT 30W-6 can be tracked NOW for your location showing map with azimuth and elevation plus other details from your city location.







IsCatalogInMostPopularTable: catalog: 43228, numindb: 1070
Update: records affected: 1



GetName: 43228 HISPASAT 30W-6

Hit Count: updated at: Mon, 13 Jan 2025 19:48:22 GMT